TimeEDT,TemperatureF,Dew PointF,Humidity,Sea Level PressureIn,VisibilityMPH,Wind Direction,Wind SpeedMPH,Gust SpeedMPH,PrecipitationIn,Events,Conditions,WindDirDegrees,DateUTC
12:16 AM,80.6,77.0,89,29.85,7.0,SW,5.8,-,N/A,Rain,Light Rain,230,2013-08-28 04:16:00
12:37 AM,80.6,77.0,89,29.84,10.0,WSW,9.2,-,N/A,Rain,Light Rain,240,2013-08-28 04:37:00
1:13 AM,80.6,77.0,89,29.85,7.0,WSW,10.4,-,N/A,Rain,Light Rain,240,2013-08-28 05:13:00
1:33 AM,78.8,75.2,89,29.85,7.0,WSW,9.2,16.1,N/A,Rain,Light Rain,240,2013-08-28 05:33:00
1:53 AM,78.8,75.2,89,29.86,3.0,WSW,6.9,-,N/A,Rain,Heavy Rain,240,2013-08-28 05:53:00
2:13 AM,78.8,75.2,89,29.83,5.0,South,10.4,-,N/A,Rain,Rain,190,2013-08-28 06:13:00
2:56 AM,78.8,75.2,89,29.81,10.0,SW,9.2,16.1,N/A,,Clear,230,2013-08-28 06:56:00
3:16 AM,78.8,75.2,89,29.81,10.0,SW,9.2,-,N/A,,Scattered Clouds,230,2013-08-28 07:16:00
3:36 AM,78.8,75.2,89,29.80,10.0,WSW,9.2,-,N/A,,Scattered Clouds,240,2013-08-28 07:36:00
3:56 AM,78.8,75.2,89,29.80,10.0,West,12.7,-,N/A,,Scattered Clouds,260,2013-08-28 07:56:00
4:16 AM,78.8,73.4,83,29.80,10.0,West,12.7,-,N/A,,Clear,260,2013-08-28 08:16:00
4:36 AM,77.0,73.4,89,29.80,10.0,West,12.7,-,N/A,,Mostly Cloudy,260,2013-08-28 08:36:00
4:56 AM,77.0,73.4,89,29.80,10.0,West,6.9,-,N/A,,Mostly Cloudy,260,2013-08-28 08:56:00
5:16 AM,75.2,73.4,94,29.81,10.0,West,9.2,-,N/A,,Mostly Cloudy,260,2013-08-28 09:16:00
5:37 AM,75.2,73.4,94,29.81,10.0,West,9.2,-,N/A,,Mostly Cloudy,270,2013-08-28 09:37:00
5:52 AM,75.2,73.4,94,29.81,10.0,West,5.8,-,N/A,,Overcast,270,2013-08-28 09:52:00
6:12 AM,75.2,73.4,94,29.81,10.0,WNW,4.6,-,N/A,,Overcast,290,2013-08-28 10:12:00
6:32 AM,75.2,73.4,94,29.82,10.0,WNW,4.6,-,N/A,,Overcast,300,2013-08-28 10:32:00
6:52 AM,75.2,71.6,89,29.82,10.0,NW,9.2,-,N/A,,Overcast,320,2013-08-28 10:52:00
7:12 AM,75.2,71.6,89,29.82,10.0,West,4.6,-,N/A,,Overcast,280,2013-08-28 11:12:00
7:32 AM,75.2,71.6,89,29.83,10.0,NW,4.6,-,N/A,,Overcast,310,2013-08-28 11:32:00
7:52 AM,75.2,73.4,94,29.83,10.0,Calm,Calm,-,N/A,,Overcast,0,2013-08-28 11:52:00
8:12 AM,75.2,73.4,94,29.84,10.0,Calm,Calm,-,N/A,,Overcast,0,2013-08-28 12:12:00
8:33 AM,77.0,73.4,89,29.84,10.0,Calm,Calm,-,N/A,,Overcast,0,2013-08-28 12:33:00
8:53 AM,77.0,73.4,89,29.85,10.0,Calm,Calm,-,N/A,,Overcast,0,2013-08-28 12:53:00
9:13 AM,77.0,73.4,89,29.85,10.0,Calm,Calm,-,N/A,,Overcast,0,2013-08-28 13:13:00
9:33 AM,78.8,75.2,89,29.85,10.0,NW,3.5,-,N/A,,Overcast,310,2013-08-28 13:33:00
9:53 AM,80.6,75.2,84,29.85,10.0,NW,6.9,-,N/A,,Mostly Cloudy,320,2013-08-28 13:53:00
10:13 AM,80.6,75.2,84,29.85,10.0,NNW,10.4,18.4,N/A,,Overcast,330,2013-08-28 14:13:00
10:34 AM,80.6,75.2,84,29.86,10.0,NW,6.9,-,N/A,,Mostly Cloudy,320,2013-08-28 14:34:00
10:54 AM,82.4,75.2,79,29.86,10.0,North,5.8,-,N/A,,Mostly Cloudy,360,2013-08-28 14:54:00
11:14 AM,82.4,75.2,79,29.86,10.0,North,6.9,-,N/A,,Mostly Cloudy,360,2013-08-28 15:14:00
11:35 AM,82.4,75.2,79,29.87,10.0,Calm,Calm,-,N/A,,Overcast,0,2013-08-28 15:35:00
11:55 AM,80.6,75.2,84,29.87,10.0,Calm,Calm,-,N/A,,Overcast,0,2013-08-28 15:55:00
12:15 PM,80.6,75.2,84,29.88,7.0,North,5.8,-,N/A,,Overcast,360,2013-08-28 16:15:00
12:35 PM,82.4,75.2,79,29.88,7.0,Calm,Calm,-,N/A,,Overcast,0,2013-08-28 16:35:00
12:55 PM,82.4,75.2,79,29.87,10.0,North,5.8,-,N/A,,Overcast,350,2013-08-28 16:55:00
1:15 PM,84.2,75.2,74,29.87,10.0,NNW,5.8,-,N/A,,Scattered Clouds,340,2013-08-28 17:15:00
1:35 PM,84.2,75.2,74,29.88,10.0,NNW,8.1,-,N/A,,Scattered Clouds,340,2013-08-28 17:35:00
2:13 PM,84.2,75.2,74,29.89,10.0,NNE,6.9,-,N/A,,Overcast,30,2013-08-28 18:13:00
2:33 PM,84.2,73.4,70,29.90,10.0,NE,5.8,-,N/A,,Mostly Cloudy,40,2013-08-28 18:33:00
2:53 PM,82.4,73.4,74,29.90,10.0,NE,5.8,-,N/A,,Overcast,40,2013-08-28 18:53:00
3:13 PM,82.4,73.4,74,29.90,10.0,NE,5.8,-,N/A,,Overcast,50,2013-08-28 19:13:00
3:33 PM,82.4,73.4,74,29.90,10.0,Calm,Calm,-,N/A,,Overcast,0,2013-08-28 19:33:00
3:53 PM,82.4,73.4,74,29.91,10.0,NE,3.5,-,N/A,,Overcast,40,2013-08-28 19:53:00
4:13 PM,82.4,73.4,74,29.91,10.0,NNE,3.5,-,N/A,,Overcast,30,2013-08-28 20:13:00
4:33 PM,82.4,75.2,79,29.91,10.0,Calm,Calm,-,N/A,,Overcast,0,2013-08-28 20:33:00
4:53 PM,82.4,75.2,79,29.92,10.0,Calm,Calm,-,N/A,,Overcast,0,2013-08-28 20:53:00
5:14 PM,82.4,73.4,74,29.92,10.0,NE,4.6,-,N/A,,Overcast,40,2013-08-28 21:14:00
5:34 PM,82.4,75.2,79,29.92,10.0,NE,3.5,-,N/A,,Mostly Cloudy,40,2013-08-28 21:34:00
5:54 PM,84.2,73.4,70,29.92,10.0,NE,4.6,-,N/A,,Scattered Clouds,40,2013-08-28 21:54:00
6:14 PM,82.4,73.4,74,29.92,10.0,NNE,4.6,-,N/A,,Scattered Clouds,30,2013-08-28 22:14:00
6:34 PM,82.4,73.4,74,29.92,10.0,Calm,Calm,-,N/A,,Clear,0,2013-08-28 22:34:00
6:54 PM,82.4,73.4,74,29.93,10.0,Calm,Calm,-,N/A,,Clear,0,2013-08-28 22:54:00
7:14 PM,82.4,71.6,70,29.93,10.0,NE,3.5,-,N/A,,Clear,40,2013-08-28 23:14:00
7:34 PM,80.6,73.4,79,29.94,10.0,Calm,Calm,-,N/A,,Clear,0,2013-08-28 23:34:00
7:54 PM,78.8,75.2,89,29.94,10.0,Calm,Calm,-,N/A,,Scattered Clouds,0,2013-08-28 23:54:00
8:14 PM,78.8,73.4,83,29.94,10.0,Calm,Calm,-,N/A,,Mostly Cloudy,0,2013-08-29 00:14:00
8:35 PM,75.2,73.4,94,29.95,10.0,Calm,Calm,-,N/A,,Mostly Cloudy,0,2013-08-29 00:35:00
8:55 PM,77.0,73.4,89,29.95,10.0,Calm,Calm,-,N/A,,Scattered Clouds,0,2013-08-29 00:55:00
9:15 PM,75.2,71.6,89,29.97,10.0,Calm,Calm,-,N/A,,Clear,0,2013-08-29 01:15:00
9:35 PM,73.4,71.6,94,29.97,7.0,Calm,Calm,-,N/A,,Scattered Clouds,0,2013-08-29 01:35:00
9:55 PM,73.4,71.6,94,29.97,7.0,Calm,Calm,-,N/A,,Scattered Clouds,0,2013-08-29 01:55:00
10:15 PM,71.6,71.6,100,29.98,5.0,Calm,Calm,-,N/A,,Clear,0,2013-08-29 02:15:00
10:35 PM,73.4,71.6,94,29.98,10.0,Calm,Calm,-,N/A,,Clear,0,2013-08-29 02:35:00
10:55 PM,73.4,71.6,94,29.99,10.0,North,3.5,-,N/A,,Clear,10,2013-08-29 02:55:00
11:16 PM,73.4,71.6,94,29.99,10.0,Calm,Calm,-,N/A,,Clear,0,2013-08-29 03:16:00
11:36 PM,73.4,71.6,94,29.99,10.0,Calm,Calm,-,N/A,,Clear,0,2013-08-29 03:36:00
11:56 PM,71.6,69.8,94,29.99,10.0,Calm,Calm,-,N/A,,Clear,0,2013-08-29 03:56:00